This is the latest recevied weather packets stored in our database for station/object SP3TOM-10. If no packets are shown the sender has not sent any weather packets the latest 10 day(s).
| Time | Temp. | Humidity | Pressure | Rain* | Wind** | Luminosity | Snow |
|---|---|---|---|---|---|---|---|
| 1777485637 | 14.44° C | 25% | 1018.6 hPa | - | - | - | - |
| 1777484737 | 14.44° C | 25% | 1018.6 hPa | - | - | - | - |
| 1777483836 | 14.44° C | 24% | 1018.6 hPa | - | - | - | - |
| 1777482936 | 14.44° C | 24% | 1018.6 hPa | - | - | - | - |
| 1777482036 | 13.89° C | 24% | 1018.6 hPa | - | - | - | - |
| 1777481136 | 14.44° C | 24% | 1018.4 hPa | - | - | - | - |
| 1777480236 | 14.44° C | 24% | 1018.3 hPa | - | - | - | - |
| 1777479336 | 14.44° C | 24% | 1018.4 hPa | - | - | - | - |
| 1777478436 | 14.44° C | 24% | 1018.4 hPa | - | - | - | - |
| 1777477535 | 14.44° C | 24% | 1018.5 hPa | - | - | - | - |
| 1777476635 | 14.44° C | 23% | 1018.5 hPa | - | - | - | - |
| 1777475735 | 14.44° C | 23% | 1018.5 hPa | - | - | - | - |
| 1777474835 | 14.44° C | 23% | 1018.5 hPa | - | - | - | - |
| 1777473935 | 14.44° C | 23% | 1018.6 hPa | - | - | - | - |
| 1777473034 | 14.44° C | 23% | 1018.5 hPa | - | - | - | - |
| 1777472134 | 14.44° C | 23% | 1018.7 hPa | - | - | - | - |
| 1777471234 | 15.56° C | 23% | 1018.6 hPa | - | - | - | - |
| 1777470334 | 14.44° C | 23% | 1018.5 hPa | - | - | - | - |
| 1777469434 | 14.44° C | 23% | 1018.6 hPa | - | - | - | - |
| 1777468534 | 15° C | 22% | 1018.6 hPa | - | - | - | - |
| 1777467633 | 15° C | 22% | 1018.7 hPa | - | - | - | - |
| 1777466733 | 15° C | 22% | 1018.7 hPa | - | - | - | - |
| 1777465833 | 15° C | 22% | 1018.8 hPa | - | - | - | - |
| 1777464933 | 14.44° C | 23% | 1018.8 hPa | - | - | - | - |
| 1777464033 | 15° C | 22% | 1019 hPa | - | - | - | - |
* Rain since midnight (hover to see other rain measurements)
** Current wind speed in m/s (hover to see current wind gust speed)